Tracking 29747 objects as of 10-Oct-2024
HD Live streaming from Space Station
objects crossing your sky now

NANOSAT(1)

Track NANOSAT(1) now!
10-day predictions
NANOSAT(1) is classified as:


NORAD ID: 28493
Int'l Code: 2004-049B
Perigee: 641.2 km
Apogee: 648.5 km
Inclination: 98.2 °
Period: 97.5 minutes
Semi major axis: 7015 km
RCS: 0.2736 m2 (medium)
Launch date: December 18, 2004
Source: Spain (SPN)
Launch site: FRENCH GUIANA (FRGUI)

Will maintain contact with Spanish zone in Antarctica; extremely small magnetic and solar sensors.
Your satellite tracking list
Your tracking list is empty




NASA's NSSDC Master Catalog

Two Line Element Set (TLE):
1 28493U 04049B   24283.80876285  .00005951  00000-0  84424-3 0  9991
2 28493  98.1566  38.4675 0005221 108.0066 252.1713 14.77350416 64488
Source of the keplerian elements: AFSPC